Location: Newark
(7.0858°N, 171.3717°E)
Time: 16:15:21
(UTC+00:00)

Hubble Space Telescope - Pass Details

Date: 03 October 2021
Orbit: 535 x 538 km, 28.5° (Epoch: 17 October)

Event Time Altitude Azimuth Distance (km) Brightness Sun altitude
Exits shadow 17:14:55 36° 247° (WSW) 860 1.3 -17.5°
Maximum altitude 17:16:32 82° 329° (NNW) 540 0.6 -17.1°
Drops below altitude 10° 17:20:39 10° 58° (ENE) 1,776 4.3 -16.1°
Sets 17:22:54 0° 60° (ENE) 2,665 5.3 -15.5°
